Location: Moscow
(55.7500°N, 37.5830°E)
Time: 15:55:07
(UTC+03:00)

Transit 2A - Pass Details

Date: 02 December 2021
Orbit: 591 x 967 km, 66.7° (Epoch: 17 January)

Event Time Altitude Azimuth Distance (km) Brightness Sun altitude
Rises 09:46:28 0° 316° (NW) 3,650 8.8 5.8°
Reaches altitude 10° 09:49:07 10° 311° (NW) 2,713 8.3 6.0°
Maximum altitude 09:55:12 47° 240° (WSW) 1,255 7.2 6.5°
Drops below altitude 10° 10:01:07 10° 169° (S) 2,641 10.4 6.9°
Sets 10:03:40 0° 163° (SSE) 3,544 11.3 7.1°
